Regional Weather Roundup
Issued by NWS

Home | Current Version | Previous Version | Graphics & Text | Print | Product List | Glossary On
Versions: 1 2 3 4 5 6 7 8 9 10 11 12 13 14 15 16 17 18 19 20 21 22 23 24 25 26 27 28 29 30 31 32 33 34 35 36 37 38 39 40 41 42 43 44 45 46 47 48 49 50
000
ASUS43 KMPX 151701
RWRMN
WEATHER ROUNDUP FOR MINNESOTA
NATIONAL WEATHER SERVICE TWIN CITIES/CHANHASSEN MN
1200 PM CDT MON SEP 15 2014


NOTE: "FAIR" INDICATES FEW OR NO CLOUDS BELOW 12,000 FEET WITH NO
SIGNIFICANT WEATHER AND/OR OBSTRUCTIONS TO VISIBILITY. N/A MEANS
CURRENT SKY AND/OR WEATHER CONDITIONS ARE NOT AVAILABLE.

MNZ060>063-068>070-151800-
   Twin Cities Metro

CITY           SKY/WX    TMP DP  RH WIND       PRES   REMARKS
TWIN CITIES    PTSUNNY   58  43  57 VRB7      30.21S
ST PAUL        MOSUNNY   58  45  62 N7        30.22S
CRYSTAL        PTSUNNY   58  42  55 N7        30.20F
BLAINE         PTSUNNY   57  45  62 NE3       30.21S
LAKEVILLE      PTSUNNY   54  46  76 N7        30.21S
EDEN PRAIRIE   PTSUNNY   59  45  59 N10       30.21S
SOUTH ST PAUL  MOSUNNY   58  44  59 N8        30.20S
LAKE ELMO      PTSUNNY   55  43  62 NW7       30.22S
$$
MNZ001>005-007-008-013>017-022>024-027-028-151800-
   Northwest Minnesota

CITY           SKY/WX    TMP DP  RH WIND       PRES   REMARKS
BEMIDJI        SUNNY     56  32  40 NW10G18   30.21F
HALLOCK        SUNNY     59  39  47 W6        30.18F
ROSEAU         SUNNY     57  39  51 SW12      30.17F
WARROAD        SUNNY     57  43  58 W13       30.17
THIEF RVR FALL SUNNY     55  37  50 W8G16     30.21F
CROOKSTON      SUNNY     57  41  54 W7        30.23F
FOSSTON        PTSUNNY   55  34  44 W6        30.24S
DETROIT LAKES  SUNNY     55  32  41 NW5       30.26S
MOORHEAD       SUNNY     57  30  35 NW5       30.26S
PARK RAPIDS    MOSUNNY   56  31  38 NW13G18   30.23S
MAHNOMEN       PTSUNNY   56  32  41 W8        30.24S
$$
MNZ006-009>011-018-025>026-151800-
   North Central Minnesota

CITY           SKY/WX    TMP DP  RH WIND       PRES   REMARKS
BAUDETTE       SUNNY     57  38  48 W8        30.17F
FLAG ISLAND    MOSUNNY   55  36  47 W15       30.12F
INTL FALLS     SUNNY     56  40  55 W12       30.16F
WASKISH        SUNNY     54  43  66 CALM      30.20F
BIG FORK       MOSUNNY   55  36  47 NW7       30.20S
LONGVILLE      MOSUNNY   55  34  44 W8        30.22S
GRAND RAPIDS   CLOUDY    52  30  43 NW13G18   30.20F
CRANE LAKE     MOSUNNY   52  36  54 NW6       30.18S
ORR            MOSUNNY   54  34  47 CALM      30.16S
COOK           MOSUNNY   54  36  50 W10G16    30.18S
WALKER         PTSUNNY   52  31  44 NW5       30.22S
$$
MNZ012-019>021-037-151800-
   Northeast Minnesota

CITY           SKY/WX    TMP DP  RH WIND       PRES   REMARKS
DULUTH         PTSUNNY   53  34  48 N17       30.17S
ELY            CLOUDY    50  36  57 NW12      30.16S
HIBBING        CLOUDY    52  35  52 NW10      30.19F
EVELETH        PTSUNNY   50  32  50 NW8       30.19S
DULUTH HARBOR  CLOUDY    55  36  47 NW10      30.19S
TWO HARBORS    PTSUNNY   52  36  54 NW6G17    30.15S
SILVER BAY     SUNNY     50  39  66 NW6       30.14S
GRAND MARAIS     N/A     54  44  69 SW9       30.10F
G MARAIS ARPRT LGT RAIN  46  39  76 NW3       30.12S
$$
MNZ029>031-032-039>041-046>048-054>057-064-151800-
   West Central Minnesota

CITY           SKY/WX    TMP DP  RH WIND       PRES   REMARKS
FERGUS FALLS   SUNNY     57  27  30 N8G22     30.26S
WHEATON        SUNNY     55  34  44 NW14      30.28S
MORRIS         MOSUNNY   61  37  41 N14       30.25S
ALEXANDRIA     CLOUDY    55  41  59 NW9       30.26R
ELBOW LAKE     PTSUNNY   56  38  51 N8        30.25F
WADENA         MOSUNNY   54  37  54 NW6       30.24S
GLENWOOD       PTSUNNY   55  37  50 NW9       30.25S
APPLETON       PTSUNNY   61  39  44 N10       30.25S
BENSON         MOSUNNY   59  36  41 N10       30.25S
ORTONVILLE     MOSUNNY   57  34  41 N12       30.26S
MADISON        SUNNY     61  43  51 N9G16     30.26S
WILLMAR        FAIR      59  37  44 NW8       30.25S
$$
MNZ033>034-036-042>043-049>051-058-059-151800-
   Central Minnesota

CITY           SKY/WX    TMP DP  RH WIND       PRES   REMARKS
ST CLOUD       MOSUNNY   59  35  40 N9        30.23S
SAUK CENTRE    CLOUDY    55  37  51 N10       30.24S
PAYNESVILLE    CLOUDY    53  34  48 W9        30.24S
AITKIN         MOSUNNY   59  36  41 NW5       30.20S
PINE RIVER     PTSUNNY   54  36  50 NW6       30.25S
BRAINERD       MOSUNNY   54  35  48 N9        30.23S
STAPLES        SUNNY     54  36  50 N5        30.24S
LONG PRAIRIE   FAIR      54  36  50 NW5       30.24S
LITTLE FALLS   CLOUDY    54  34  47 CALM      30.23S
LITCHFIELD     CLOUDY    57  39  51 NW9       30.25R
BUFFALO        PTSUNNY   57  39  51 N10       30.23S
MAPLE LAKE     CLOUDY    57  41  54 NW12G17   30.23S
$$
MNZ037-044-045-052-053-151800-
   East Central Minnesota

CITY           SKY/WX    TMP DP  RH WIND       PRES   REMARKS
PRINCETON      PTSUNNY   59  39  47 CALM      30.22S
MORA           MOSUNNY   55  36  47 NW13      30.23R
CAMBRIDGE      CLOUDY    57  41  54 NW7       30.20R
RUSH CITY      MOSUNNY   56  39  51 N8        30.21S
MOOSE LAKE     PTSUNNY   55  34  44 N8        30.18S
HINCKLEY       FAIR      55  37  50 NW10G20   30.21R
CLOQUET        PTSUNNY   52  32  46 NW13G22   30.18S
MCGREGOR       PTSUNNY   55  34  44 N15       30.21S
$$
MNZ071>073-080-081-089-090-097-098-151800-
   Southwest Minnesota

CITY           SKY/WX    TMP DP  RH WIND       PRES   REMARKS
MONTEVIDEO     PTSUNNY   59  43  55 N8        30.27R
GRANITE FALLS  PTSUNNY   57  41  54 NW5       30.27R
CANBY          MOSUNNY   57  42  57 NW7       30.28S
MARSHALL       PTSUNNY   57  37  47 N13       30.25S
REDWOOD FALLS  PTSUNNY   58  42  55 N9        30.24S
OLIVIA         CLOUDY    57  39  51 N10       30.24R
PIPESTONE      PTSUNNY   57  39  51 NE9G18    30.26R
WINDOM         MOSUNNY   57  45  62 N15       30.24S
WORTHINGTON    PTSUNNY   55  41  58 N13       30.26S
JACKSON        PTSUNNY   57  43  58 N13G18    30.24S
TRACY          PTSUNNY   57  44  59 N8        30.26S
SLAYTON        MOSUNNY   56  42  58 N10G18    30.26S
$$
MNZ065>067-074>077-082>085-091>093-151800-
   South Central Minnesota

CITY           SKY/WX    TMP DP  RH WIND       PRES   REMARKS
MANKATO        PTSUNNY   57  43  58 N9        30.22S
NEW ULM        PTSUNNY   57  45  62 N6        30.23S
ST JAMES       PTSUNNY   61  46  59 NW14      30.24S
FAIRMONT       PTSUNNY   59  45  58 NW9       30.23S
GLENCOE        PTSUNNY   58  40  51 NW8       30.22S
FARIBAULT      PTSUNNY   59  45  58 N8        30.21S
OWATONNA       PTSUNNY   55  45  67 NW8       30.21S
WASECA         PTSUNNY   55  41  58 NW7       30.23S
ALBERT LEA     CLOUDY    54  45  71 N7        30.21R
$$
MNZ078>079-086>088-094>096-151800-
   Southeast Minnesota

CITY           SKY/WX    TMP DP  RH WIND       PRES   REMARKS
ROCHESTER      PTSUNNY   55  44  66 N6        30.20S
RED WING       CLOUDY    57  46  67 NW7       30.19S
STANTON        CLOUDY    56  47  71 N5        30.20S
DODGE CENTER   PTSUNNY   55  46  71 NW3       30.20S
WINONA         CLOUDY    54  46  76 CALM      30.19S
AUSTIN         PTSUNNY   55  46  71 N8        30.20R
PRESTON        CLOUDY    52  50  92 N12       30.20R
$$
ABBREVIATIONS USED IN REMARKS
   TC - TEMPERATURES IN CELSIUS
  WCI - WIND CHILL INDEX
   HX - HEAT INDEX
  VSB - VISIBILITY
$$



USA.gov is the U.S. government's official web portal to all federal, state and local government web resources and services.